Home   Weather   Clarksville   Past weeks
Flag for USA

Past Weather in Clarksville, Tennessee, USA — Yesterday and Last 2 Weeks

Now
64 °F

Sunny.


Feels Like: 64 °F
Forecast: 64 / 45 °F
Wind: 16 mph from West

Location: Outlaw Field

Current Time: Oct 22, 2019 at 5:09:29 pm

Latest Report: Oct 22, 2019 at 3:52 pm


Visibility: 10 mi

Pressure: 29.94 "Hg

Humidity: 40%

Dew Point: 39 °F

Location of ClarksvilleLocation

Past Weather in Clarksville — Graph

°F

Clarksville Temperature Yesterday

Maximum temperature yesterday: 70 °F (at 11:52 am)
Minimum temperature yesterday: 60 °F (at 10:52 pm)
Average temperature yesterday: 65 °F

High & Low Weather Summary for the Past Weeks

 TemperatureHumidityPressure
High82 °F (Oct 10, 1:52 pm)100% (Oct 10, 1:52 am)30.24 "Hg (Oct 10, 1:52 am)
Low34 °F (Oct 13, 5:00 am)30% (Oct 13, 4:52 pm)29.71 "Hg (Oct 21, 2:52 pm)
Average58 °F77%30.00 "Hg
* Reported Oct 7 3:52 pm — Oct 22 3:52 pm, Clarksville. Weather by CustomWeather, © 2019

Note: Actual official high and low records may vary slightly from our data, if they occured in-between our weather recording intervals... More about our weather records

Advertising

Clarksville Weather History for the Previous 24 Hours

Scroll right to see more
 ConditionsComfort  
Time TempWeatherWind HumidityBarometerVisibility
3:52 pm
Tue, Oct 22
64 °FSunny.16 mph40%29.94 "Hg10 mi
2:52 pm65 °FScattered clouds.16 mph42%29.93 "Hg10 mi
1:52 pm64 °FSunny.17 mph41%29.93 "Hg10 mi
12:52 pm63 °FSunny.16 mph45%29.95 "Hg10 mi
11:52 am61 °FSunny.14 mph50%29.97 "Hg10 mi
10:52 am59 °FSunny.15 mph54%29.96 "Hg10 mi
9:52 am57 °FSunny.14 mph60%29.96 "Hg10 mi
8:52 am54 °FSunny.8 mph72%29.95 "Hg10 mi
7:52 am51 °FSunny.7 mph83%29.93 "Hg10 mi
6:52 am51 °FSunny.5 mph86%29.91 "Hg10 mi
5:52 am52 °FClear.7 mph89%29.90 "Hg10 mi
4:52 am54 °FClear.7 mph86%29.87 "Hg10 mi
3:52 am54 °FClear.6 mph93%29.86 "Hg10 mi
2:52 am55 °FClear.5 mph96%29.86 "Hg10 mi
2:09 am57 °FPassing clouds.5 mph93%29.87 "Hg10 mi
1:52 am58 °FClear.6 mph90%29.85 "Hg10 mi
12:52 am60 °FPassing clouds.10 mph90%29.84 "Hg10 mi
12:43 am60 °FPassing clouds.12 mph90%29.85 "Hg10 mi
12:31 am60 °FPassing clouds.7 mph90%29.85 "Hg10 mi
11:52 pm
Mon, Oct 21
60 °FPassing clouds.7 mph93%29.85 "Hg10 mi
10:52 pm60 °FClear.8 mph93%29.85 "Hg10 mi
9:52 pm62 °FPassing clouds.8 mph86%29.83 "Hg10 mi
8:52 pm62 °FPassing clouds.12 mph90%29.81 "Hg10 mi
7:52 pm63 °FPassing clouds.9 mph87%29.79 "Hg10 mi
6:52 pm64 °FPassing clouds.13 mph84%29.78 "Hg10 mi
6:34 pm64 °FPassing clouds.10 mph84%29.78 "Hg10 mi
6:00 pm64 °FPassing clouds.13 mph84%29.78 "Hg10 mi
5:05 pm65 °FOvercast.15 mph81%29.77 "Hg10 mi
Weather by CustomWeather, © 2019

See weather overview